Skip Page Navigation
NASA JPL Caltech
NASA Logo - Jet Propulsion Laboratory + View the NASA Portal
+ Center for Near-Earth Object Studies
JPL Home Earth Solar System Stars & Galaxies Technology
JPL Solar System Dynamics
BODIES ORBITS EPHEMERIDES TOOLS PHYSICAL DATA DISCOVERY FAQ SITE MAP
JPL Small-Body Database Browser
Search: [ help ]  
385914 (2006 TS31)
Classification: Main-belt Asteroid          SPK-ID: 2385914
Ephemeris | Orbit Diagram | Orbital Elements | Mission Design | Physical Parameters | Discovery Circumstances | Close-Approach Data ]

[ show orbit diagram ]
Orbital Elements at Epoch 2459200.5 (2020-Dec-17.0) TDB
Reference: JPL 10 (heliocentric ecliptic J2000)
 Element Value Uncertainty (1-sigma)   Units 
e .1189445620066712 1.8688e-07  
a 2.196555255728667 1.1386e-08 au
q 1.935286952912569 4.1022e-07 au
i 2.010600754479428 1.1909e-05 deg
node 192.9895427879513 0.00018808 deg
peri 201.1952311649453 0.00020841 deg
M 124.1713127660764 6.8457e-05 deg
tp 2458790.361633160712
(2019-Nov-02.86163316)
0.0002265 TDB
period 1189.081509835511
3.26
9.2456e-06
2.531e-08
d
yr
n .3027546867243775 2.354e-09 deg/d
Q 2.457823558544765 1.274e-08 au
  Orbit Determination Parameters
   # obs. used (total)      125  
   data-arc span      4809 days (13.17 yr)  
   first obs. used      2006-09-25  
   last obs. used      2019-11-25  
   planetary ephem.      DE441  
   SB-pert. ephem.      SB441-N16  
   condition code      0  
   norm. resid. RMS      .51193  
   source      ORB  
   producer      Otto Matic  
   solution date      2021-Apr-14 11:07:06  

Additional Information
 Earth MOID = .940491 au 
 Jupiter MOID = 2.92713 au 
 T_jup = 3.658 
[ show covariance matrix ]

Ephemeris | Orbit Diagram | Orbital Elements | Mission Design | Physical Parameters | Discovery Circumstances | Close-Approach Data ]

Physical Parameter Table
Parameter Symbol Value Units Sigma Reference Notes
absolute magnitude H 18.4   n/a MPO507691  

385914 (2006 TS31)          Discovered 2006-Sep-25 by Mt. Lemmon Survey at Mount Lemmon
Reference: Last Updated: 2014-02-19

[ show close-approach data ]
Ephemeris | Orbit Diagram | Orbital Elements | Mission Design | Physical Parameters | Discovery Circumstances | Close-Approach Data ]
ABOUT SSD CREDITS/AWARDS PRIVACY/COPYRIGHT GLOSSARY LINKS
FirstGov 2021-Jun-12 22:11 UT
(server date/time)  
NASA Home Page
Site Manager:   Ryan S. Park
Webmaster  Alan B. Chamberlin